When you browse on this site, cookies collect data to enhance your experience and personalize the content and advertising you see.
Visit our Privacy Policy to learn more. By continuing to use the site, you agree to this use of cookies and data.
  • In Hungary
  • List of Countries
  • For 7 days
  • Water Temperature
  • Satellite Maps
  • Weather Map
  • News
  • Weather Widgets
  • user-avatar
    Login

    Hourly Weather Statesville

    Today, 12 December, Wednesday

    Time Temperature Precipitation Wind Pressure Humidity
    00:00 0°C° 0 mm 1 mps 742 mmHg 83%
    01:00 -1°C° 0 mm 1 mps 742 mmHg 81%
    02:00 -1°C° 0 mm 1 mps 742 mmHg 80%
    03:00 -1°C° 0 mm 1 mps 742 mmHg 79%
    04:00 -1°C° 0 mm 1 mps 742 mmHg 78%
    05:00 -1°C° 0 mm 1 mps 743 mmHg 78%
    06:00 -1°C° 0 mm 1 mps 743 mmHg 78%
    07:00 -1°C° 0 mm 1 mps 743 mmHg 77%
    08:00 0°C° 0 mm 0 mps 743 mmHg 78%
    09:00 +1°C° 0 mm 0 mps 743 mmHg 78%
    10:00 +3°C° 0 mm 0 mps 743 mmHg 78%
    11:00 +4°C° 0 mm 0 mps 743 mmHg 78%
    12:00 +5°C° 0 mm 1 mps 742 mmHg 78%
    13:00 +6°C° 0 mm 1 mps 742 mmHg 79%
    14:00 +6°C° 0 mm 1 mps 741 mmHg 82%
    15:00 +6°C° 0 mm 1 mps 741 mmHg 85%
    16:00 +6°C° 0 mm 1 mps 741 mmHg 89%
    17:00 +5°C° 0 mm 1 mps 741 mmHg 89%
    18:00 +3°C° 0 mm 1 mps 741 mmHg 89%
    19:00 +2°C° 0 mm 1 mps 741 mmHg 89%
    20:00 +1°C° 0 mm 0 mps 742 mmHg 89%
    21:00 +1°C° 0 mm 0 mps 742 mmHg 89%
    22:00 0°C° 0 mm 0 mps 742 mmHg 90%
    23:00 0°C° 0 mm 0 mps 742 mmHg 90%

    Tomorrow, 13 December, Thursday

    Time Temperature Precipitation Wind Pressure Humidity
    00:00 +1°C° 0 mm 1 mps 742 mmHg 90%
    01:00 +1°C° 0 mm 1 mps 742 mmHg 90%
    02:00 +1°C° 0 mm 1 mps 742 mmHg 90%
    03:00 +1°C° 0 mm 1 mps 742 mmHg 90%
    04:00 +1°C° 0 mm 1 mps 742 mmHg 89%
    05:00 +1°C° 0 mm 0 mps 742 mmHg 89%
    06:00 +1°C° 0 mm 0 mps 743 mmHg 88%
    07:00 +1°C° 0 mm 0 mps 743 mmHg 87%
    08:00 +2°C° 0 mm 0 mps 743 mmHg 86%
    09:00 +4°C° 0 mm 0 mps 744 mmHg 86%
    10:00 +5°C° 0 mm 0 mps 744 mmHg 85%
    11:00 +6°C° 0 mm 0 mps 744 mmHg 84%
    12:00 +8°C° 0 mm 1 mps 744 mmHg 82%
    13:00 +8°C° 0 mm 1 mps 744 mmHg 81%
    14:00 +8°C° 0 mm 1 mps 744 mmHg 84%
    15:00 +8°C° 0 mm 1 mps 743 mmHg 87%
    16:00 +8°C° 0 mm 1 mps 743 mmHg 89%
    17:00 +6°C° 0 mm 1 mps 744 mmHg 91%
    18:00 +5°C° 0 mm 1 mps 744 mmHg 93%
    19:00 +4°C° 0 mm 1 mps 744 mmHg 95%
    20:00 +3°C° 0 mm 2 mps 745 mmHg 95%
    21:00 +3°C° 0 mm 2 mps 745 mmHg 96%
    22:00 +3°C° 0 mm 2 mps 745 mmHg 97%
    23:00 +3°C° 0 mm 2 mps 745 mmHg 97%

    Day after tomorrow, 14 December, Friday

    Time Temperature Precipitation Wind Pressure Humidity
    00:00 +3°C° 0 mm 2 mps 745 mmHg 97%
    01:00 +3°C° 0 mm 2 mps 745 mmHg 97%
    02:00 +2°C° 0.2 mm 3 mps 744 mmHg 96%
    03:00 +2°C° 0.2 mm 3 mps 744 mmHg 96%
    04:00 +2°C° 0.2 mm 3 mps 743 mmHg 96%
    05:00 +1°C° 1.8 mm 4 mps 743 mmHg 96%
    06:00 +1°C° 1.8 mm 4 mps 743 mmHg 95%
    07:00 +1°C° 1.8 mm 4 mps 743 mmHg 95%
    08:00 +1°C° 2.8 mm 5 mps 742 mmHg 95%
    09:00 +2°C° 2.8 mm 5 mps 742 mmHg 95%
    10:00 +2°C° 2.8 mm 5 mps 742 mmHg 95%
    11:00 +2°C° 3.7 mm 5 mps 741 mmHg 96%
    12:00 +4°C° 3.7 mm 4 mps 740 mmHg 96%
    13:00 +4°C° 3.7 mm 3 mps 739 mmHg 97%
    14:00 +4°C° 1.4 mm 4 mps 738 mmHg 97%
    15:00 +5°C° 1.4 mm 4 mps 737 mmHg 97%
    16:00 +5°C° 1.4 mm 4 mps 736 mmHg 97%
    17:00 +6°C° 0.8 mm 4 mps 736 mmHg 98%
    18:00 +8°C° 0.8 mm 3 mps 736 mmHg 98%
    19:00 +9°C° 0.8 mm 3 mps 736 mmHg 98%
    20:00 +9°C° 1 mm 3 mps 735 mmHg 98%
    21:00 +10°C° 1 mm 3 mps 735 mmHg 98%
    22:00 +11°C° 1 mm 3 mps 734 mmHg 98%
    23:00 +12°C° 1 mm 2 mps 734 mmHg 98%

    15 December, Saturday

    Time Temperature Precipitation Wind Pressure Humidity
    00:00 +12°C° 1 mm 2 mps 733 mmHg 98%
    01:00 +13°C° 1 mm 1 mps 733 mmHg 99%
    02:00 +12°C° 0.4 mm 1 mps 733 mmHg 99%
    03:00 +12°C° 0.4 mm 1 mps 733 mmHg 99%
    04:00 +12°C° 0.4 mm 1 mps 733 mmHg 99%
    05:00 +12°C° 0 mm 1 mps 733 mmHg 98%
    06:00 +11°C° 0 mm 1 mps 733 mmHg 98%
    07:00 +11°C° 0 mm 1 mps 733 mmHg 98%
    08:00 +12°C° 0 mm 1 mps 733 mmHg 96%
    09:00 +13°C° 0 mm 1 mps 733 mmHg 94%
    10:00 +14°C° 0 mm 1 mps 733 mmHg 92%
    11:00 +14°C° 0.3 mm 2 mps 733 mmHg 90%
    12:00 +14°C° 0.3 mm 2 mps 732 mmHg 89%
    13:00 +13°C° 0.3 mm 3 mps 732 mmHg 88%
    14:00 +12°C° 0.3 mm 3 mps 732 mmHg 85%
    15:00 +12°C° 0.3 mm 3 mps 732 mmHg 83%
    16:00 +11°C° 0.3 mm 4 mps 732 mmHg 81%
    17:00 +10°C° 0 mm 3 mps 732 mmHg 84%
    18:00 +9°C° 0 mm 3 mps 733 mmHg 86%
    19:00 +7°C° 0 mm 3 mps 733 mmHg 89%
    20:00 +7°C° 0 mm 2 mps 733 mmHg 90%
    21:00 +7°C° 0 mm 2 mps 733 mmHg 90%
    22:00 +7°C° 0 mm 2 mps 733 mmHg 90%
    23:00 +6°C° 0.1 mm 2 mps 733 mmHg 91%

    16 December, Sunday

    Time Temperature Precipitation Wind Pressure Humidity
    00:00 +5°C° 0.1 mm 3 mps 733 mmHg 91%
    01:00 +5°C° 0.1 mm 3 mps 733 mmHg 91%
    02:00 +6°C° 0.1 mm 2 mps 733 mmHg 92%
    03:00 +6°C° 0.1 mm 2 mps 734 mmHg 92%
    04:00 +6°C° 0.1 mm 2 mps 734 mmHg 93%
    05:00 +6°C° 0 mm 2 mps 734 mmHg 93%
    06:00 +5°C° 0 mm 2 mps 735 mmHg 93%
    07:00 +5°C° 0 mm 2 mps 735 mmHg 94%
    08:00 +7°C° 0 mm 2 mps 736 mmHg 89%
    09:00 +9°C° 0 mm 2 mps 736 mmHg 84%
    10:00 +12°C° 0 mm 2 mps 737 mmHg 79%
    11:00 +12°C° 0 mm 3 mps 737 mmHg 75%
    12:00 +13°C° 0 mm 3 mps 737 mmHg 72%
    13:00 +14°C° 0 mm 4 mps 737 mmHg 68%
    14:00 +14°C° 0 mm 3 mps 737 mmHg 70%
    15:00 +13°C° 0 mm 3 mps 737 mmHg 72%
    16:00 +14°C° 0 mm 2 mps 738 mmHg 74%
    17:00 +12°C° 0 mm 2 mps 738 mmHg 78%
    18:00 +10°C° 0 mm 2 mps 738 mmHg 82%
    19:00 +8°C° 0 mm 2 mps 739 mmHg 86%
    20:00 +8°C° 0 mm 2 mps 739 mmHg 85%
    21:00 +9°C° 0 mm 1 mps 739 mmHg 85%
    22:00 +9°C° 0 mm 1 mps 739 mmHg 85%
    23:00 +9°C° 0 mm 1 mps 739 mmHg 86%

    17 December, Monday

    Time Temperature Precipitation Wind Pressure Humidity
    00:00 +9°C° 0 mm 1 mps 739 mmHg 86%
    01:00 +8°C° 0 mm 1 mps 739 mmHg 87%
    02:00 +8°C° 0 mm 1 mps 739 mmHg 88%
    03:00 +6°C° 0 mm 2 mps 739 mmHg 89%
    04:00 +6°C° 0 mm 2 mps 739 mmHg 90%
    05:00 +6°C° 0 mm 2 mps 740 mmHg 90%
    06:00 +5°C° 0 mm 2 mps 740 mmHg 90%
    07:00 +5°C° 0 mm 2 mps 740 mmHg 90%
    08:00 +6°C° 0 mm 2 mps 740 mmHg 83%
    09:00 +8°C° 0 mm 2 mps 740 mmHg 77%
    10:00 +9°C° 0 mm 2 mps 740 mmHg 70%
    11:00 +10°C° 0 mm 2 mps 740 mmHg 63%
    12:00 +11°C° 0 mm 3 mps 739 mmHg 57%
    13:00 +12°C° 0 mm 3 mps 738 mmHg 51%
    14:00 +12°C° 0 mm 3 mps 738 mmHg 54%
    15:00 +11°C° 0 mm 3 mps 738 mmHg 56%
    16:00 +12°C° 0 mm 2 mps 737 mmHg 59%
    17:00 +9°C° 0 mm 2 mps 738 mmHg 62%
    18:00 +7°C° 0 mm 2 mps 739 mmHg 64%
    19:00 +6°C° 0 mm 2 mps 739 mmHg 67%
    20:00 +5°C° 0 mm 2 mps 740 mmHg 68%
    21:00 +4°C° 0 mm 2 mps 740 mmHg 69%
    22:00 +3°C° 0 mm 2 mps 740 mmHg 69%
    23:00 +3°C° 0 mm 2 mps 741 mmHg 71%
    Show more